Flag for Germany Weather past 2 weeks in Tuttlingen, Baden-Württemberg, Germany

Now
34 °F

Overcast.


Feels Like: 34 °F
Forecast: 29 / 35 °F
Wind: 2 mph from West

Location: Konstanz

Current Time: Jan 28, 2015 at 1:09:09 AM

Latest Report: Jan 28, 2015 at 12:00 AM


Visibility: 13 mi

Pressure: 30.27 "Hg

Humidity: 85%

Dew point: 30 °F

Location of TuttlingenLocation

Historic Weather in Tuttlingen — Graph

°F

Tuttlingen temperature yesterday

Maximum temperature yesterday: 38 °F (at 1:00 PM)
Minimum temperature yesterday: 32 °F (at 8:00 AM)
Average temperature yesterday: 35 °F

Past Weeks' High & Low Weather Summary

 TemperatureHumidityPressure
High54 °F (Jan 13, 4:00 PM)100% (Jan 27, 8:00 AM)30.47 "Hg (Jan 27, 8:00 AM)
Low29 °F (Jan 13, 9:00 AM)28% (Jan 13, 3:00 PM)29.70 "Hg (Jan 16, 6:00 PM)
Average35 °F85%30.07 "Hg
* Reported Midnight between Jan 12 and Jan 13 — Midnight between Jan 27 and Jan 28, Tuttlingen, Weather by CustomWeather, © 2014

Note: Actual official high and low records may vary slightly from our data, if they occured in-between our weather recording intervals... More about our weather records

Advertising

Tuttlingen weather history for previous 24 hours

 ConditionsComfort  
Time TempWeatherWind HumidityBarometerVisibility
12:00 AM
Jan 28
34 °FOvercast.2 mph85%30.27 "Hg12 mi
11:00 PM
Jan 27
34 °FOvercast.2 mph84%30.27 "Hg11 mi
10:00 PM34 °FOvercast.5 mph84%30.28 "Hg12 mi
9:00 PM35 °FOvercast.2 mph83%30.27 "Hg18 mi
8:00 PM35 °FOvercast.5 mph86%30.27 "Hg14 mi
7:00 PM35 °FFog.3 mph86%30.27 "Hg13 mi
6:00 PM35 °FOvercast.2 mph85%30.26 "Hg15 mi
5:00 PM36 °FOvercast.2 mph80%30.25 "Hg16 mi
4:00 PM37 °FOvercast.3 mph78%30.24 "Hg16 mi
3:00 PM37 °FOvercast.3 mph73%30.24 "Hg12 mi
2:00 PM36 °FLight rain. Overcast.5 mph79%30.26 "Hg12 mi
1:00 PM38 °FPartly sunny.3 mph71%30.26 "Hg12 mi
12:00 PM36 °FPartly sunny.3 mph77%30.28 "Hg11 mi
11:00 AM36 °FPartly sunny.3 mph82%30.28 "Hg11 mi
10:00 AM33 °FLow clouds.3 mph90%30.27 "Hg7 mi
9:00 AM32 °FLow clouds.2 mph98%30.27 "Hg6 mi
8:00 AM32 °FPartly sunny.2 mph100%30.26 "Hg6 mi
7:00 AM33 °FPassing clouds.3 mph97%30.24 "Hg7 mi
6:00 AM33 °FPassing clouds.3 mph97%30.23 "Hg9 mi
5:00 AM34 °FFog.5 mph94%30.22 "Hg14 mi
4:00 AM34 °FDrizzle. Overcast.3 mph93%30.20 "Hg14 mi
3:00 AM34 °FLight freezing rain. Overcast.3 mph95%30.21 "Hg8 mi
2:00 AM34 °FFog.6 mph92%30.19 "Hg16 mi
1:00 AM34 °FSnow flurries. Overcast.7 mph91%30.19 "Hg19 mi
Weather by CustomWeather, © 2014

See weather overviewHow to use our weather pages